This demonstration page uses our WeatherBlox Daily Observations layout. Learn more.

Left ArrowRight Arrow

Hourly Observations for August 31, 2018

Temp ( °F °C ) Dew Point ( °F °C ) Humidity (%) Winds ( mph kmh ) Pressure ( in mb ) Visibility ( mi km ) Precip ( " mm )
12:57 am 00:57 Clear 69 20.6 67 19.4 93 93 S 7 11 29.83 1010 10 16 0.00 0.00
1:57 am 01:57 Clear 69 20.6 67 19.4 93 93 S 9 15 29.82 1010 10 16 0.00 0.00
2:57 am 02:57 Clear 68 20 66 18.9 93 93 S 8 13 29.81 1009 10 16 0.00 0.00
3:57 am 03:57 Clear 66 18.9 65 18.3 96 96 SSE 6 9 29.79 1009 10 16 0.00 0.00
4:57 am 04:57 Clear 67 19.4 65 18.3 93 93 Calm 29.78 1009 10 16 0.00 0.00
5:57 am 05:57 Clear 64 17.8 64 17.8 100 100 ESE 6 9 29.77 1008 10 16 0.00 0.00
6:57 am 06:57 Clear 65 18.3 64 17.8 97 97 E 3 6 29.77 1008 10 16 0.00 0.00
7:57 am 07:57 Sunny 66 18.9 65 18.3 96 96 ESE 14 22 29.73 1007 9 14 0.00 0.00
8:18 am 08:18 Sunny with Nearby Thunderstorms 66 19 64 18 94 94 NW 7 11 29.77 1008 10 16 0.00 0.00
8:57 am 08:57 Partly Cloudy with Thunderstorms 67 19.4 66 18.9 97 97 SE 10 17 29.76 1008 7 11 0.00 0.00
9:17 am 09:17 Sunny with Nearby Thunderstorms 70 21 66 19 88 88 S 14 22 29.74 1007 10 16 0.00 0.00
9:57 am 09:57 Partly Cloudy with Thunderstorms 71 21.7 66 18.9 84 84 Calm 29.80 1009 8 13 0.00 0.00
10:12 am 10:12 Partly Cloudy with Thunderstorms 70 21 64 18 83 83 VRB 5 7 29.74 1007 3 4 0.07 1.78
10:21 am 10:21 Mostly Sunny 72 22 63 17 73 73 ESE 9 15 29.71 1006 9 14 0.00 0.00
10:29 am 10:29 Mostly Sunny 72 22 64 18 78 78 ESE 9 15 29.71 1006 10 16 0.07 1.78
10:57 am 10:57 Sunny 74 23.3 65 18.3 74 74 S 7 11 29.78 1008 10 16 0.07 1.78
11:57 am 11:57 Sunny 76 24.4 67 19.4 74 74 N 3 6 29.75 1008 10 16 0.00 0.00
12:57 pm 12:57 Sunny 80 26.7 68 20 67 67 SE 8 13 29.75 1007 10 16 0.00 0.00
1:57 pm 13:57 Sunny 82 27.8 68 20 63 63 SE 9 15 29.75 1007 10 16 0.00 0.00
2:57 pm 14:57 Sunny 85 29.4 70 21.1 61 61 SSE 10 17 29.73 1007 10 16 0.00 0.00
3:57 pm 15:57 Sunny 87 30.6 73 22.8 63 63 SE 15 24 29.71 1006 10 16 0.00 0.00
4:57 pm 16:57 Sunny 87 30.6 73 22.8 63 63 SE 10 17 29.70 1006 10 16 0.00 0.00
5:57 pm 17:57 Sunny 87 30.6 73 22.8 63 63 E 10 17 29.71 1006 10 16 0.00 0.00
7:57 pm 19:57 Sunny 78 25.6 74 23.3 87 87 NNE 6 9 29.72 1006 10 16 0.00 0.00
8:57 pm 20:57 Clear 76 24.4 72 22.2 88 88 NNE 8 13 29.72 1007 10 16 0.00 0.00
9:57 pm 21:57 Clear 75 23.9 72 22.2 90 90 NNE 7 11 29.75 1007 10 16 0.00 0.00
10:57 pm 22:57 Clear 75 23.9 72 22.2 90 90 NE 10 17 29.75 1007 10 16 0.00 0.00
11:57 pm 23:57 Partly Cloudy 75 23.9 72 22.2 90 90 VRB 7 11 29.75 1008 10 16 0.00 0.00

Powered by AerisWeather